FW7989 Weather Reports


time (UTC)temp
C
wind
direction
speed
KPH
gust
KPH
rain 1hr
cm
rain 24hr
cm
rain mn
cm
humidity
%
barometer
mb
20260506012102 11 44 1.6 12.9 0.00 0.00 0.00 76 1013.4
20260506011600 11 352 6.4 12.9 0.00 0.00 0.00 75 1013.4
20260506011058 11 325 3.2 14.5 0.00 0.00 0.00 75 1013.5
20260506010558 11 346 6.4 14.5 0.00 0.00 0.00 75 1013.4
20260506010058 11 346 8.0 14.5 0.00 0.00 0.00 75 1013.5
20260506005557 11 345 4.8 9.7 0.00 0.00 0.00 74 1013.5
20260506005057 11 12 3.2 8.0 0.00 0.00 0.00 74 1013.6
20260506004558 11 348 1.6 8.0 0.00 0.00 0.00 75 1013.6
20260506004058 11 327 4.8 14.5 0.00 0.00 0.00 73 1013.6
20260506003558 11 333 6.4 16.1 0.00 0.00 0.00 73 1013.6
20260506003058 11 360 8.0 17.7 0.00 0.00 0.00 73 1013.6
20260506002609 11 15 9.7 17.7 0.00 0.00 0.00 72 1013.7
20260506002058 11 352 6.4 14.5 0.00 0.00 0.00 73 1013.7
20260506001608 11 345 4.8 14.5 0.00 0.00 0.00 72 1013.7
20260506001058 11 13 6.4 14.5 0.00 0.00 0.00 72 1013.8
20260506000601 11 352 6.4 14.5 0.00 0.00 0.00 72 1013.7
20260506000124 11 29 8.0 16.1 0.00 0.00 0.00 72 1013.6
20260505235558 11 5 6.4 16.1 0.00 0.00 0.00 72 1013.6
20260505235058 11 333 9.7 16.1 0.00 0.00 0.00 72 1013.7
20260505234617 11 346 4.8 9.7 0.00 0.00 0.00 73 1013.7
20260505234058 11 27 6.4 9.7 0.00 0.00 0.00 73 1013.6
20260505233558 11 46 1.6 6.4 0.00 0.00 0.00 74 1013.7
20260505233100 11 360 1.6 4.8 0.00 0.00 0.00 74 1013.7
20260505232557 11 15 0.0 11.3 0.00 0.00 0.00 73 1013.7
20260505232058 11 0 1.6 11.3 0.00 0.00 0.00 73 1013.7
20260505231601 11 360 1.6 9.7 0.00 0.00 0.00 74 1013.7
20260505231058 11 15 3.2 9.7 0.00 0.00 0.00 73 1013.7
20260505230558 11 345 3.2 9.7 0.00 0.00 0.00 73 1013.7
20260505225600 11 346 1.6 6.4 0.00 0.00 0.00 74 1013.9
20260505225058 11 352 1.6 4.8 0.00 0.00 0.00 75 1014.0
20260505224611 11 340 1.6 4.8 0.00 0.00 0.00 74 1013.9
20260505224102 11 352 1.6 4.8 0.00 0.00 0.00 74 1013.9
20260505223558 11 352 1.6 4.8 0.00 0.00 0.00 74 1014.0
20260505223108 11 350 1.6 6.4 0.00 0.00 0.00 73 1013.9
20260505222557 11 333 1.6 6.4 0.00 0.00 0.00 73 1013.9
20260505222057 11 349 3.2 6.4 0.00 0.00 0.00 73 1013.9
20260505221603 11 0 1.6 9.7 0.00 0.00 0.00 72 1014.0
20260505221059 11 352 3.2 11.3 0.00 0.00 0.00 72 1013.9
20260505220558 11 350 4.8 12.9 0.00 0.00 0.00 72 1013.8
20260505220107 11 352 3.2 12.9 0.00 0.00 0.00 71 1013.9
20260505215600 11 329 4.8 12.9 0.00 0.00 0.00 71 1013.9
20260505215058 11 347 4.8 12.9 0.00 0.00 0.00 71 1013.9
20260505214612 11 30 6.4 12.9 0.00 0.00 0.00 71 1013.8
20260505214058 11 330 8.0 12.9 0.00 0.00 0.00 72 1013.9
20260505213600 11 348 4.8 12.9 0.00 0.00 0.00 71 1014.0
20260505213058 11 346 6.4 16.1 0.00 0.00 0.00 72 1014.0
20260505212557 11 333 6.4 16.1 0.00 0.00 0.00 71 1013.9
20260505212057 11 338 6.4 14.5 0.00 0.00 0.00 72 1014.0
20260505211641 11 340 6.4 14.5 0.00 0.00 0.00 72 1014.0
20260505211101 11 348 4.8 14.5 0.00 0.00 0.00 73 1013.9
20260505210558 11 26 4.8 14.5 0.00 0.00 0.00 73 1014.0
20260505210059 11 340 4.8 9.7 0.00 0.00 0.00 73 1013.9
20260505205558 11 332 3.2 9.7 0.00 0.00 0.00 72 1014.0
20260505205058 11 333 3.2 9.7 0.00 0.00 0.00 72 1014.0
20260505204605 11 333 1.6 8.0 0.00 0.00 0.00 72 1013.9
20260505204058 11 335 3.2 8.0 0.00 0.00 0.00 72 1013.9
20260505203558 11 350 3.2 9.7 0.00 0.00 0.00 71 1013.9
20260505203100 11 352 3.2 9.7 0.00 0.00 0.00 71 1014.0
20260505202601 11 338 4.8 12.9 0.00 0.00 0.00 71 1014.0
20260505202058 11 345 4.8 12.9 0.00 0.00 0.00 70 1013.8
20260505201559 11 343 4.8 12.9 0.00 0.00 0.00 70 1013.8
20260505201058 11 323 4.8 12.9 0.00 0.00 0.00 69 1013.8
20260505200558 11 352 3.2 14.5 0.00 0.00 0.00 69 1013.9
20260505200058 11 13 4.8 14.5 0.00 0.00 0.00 68 1013.8
20260505195558 11 331 4.8 12.9 0.00 0.00 0.00 67 1013.7
20260505195057 11 340 4.8 12.9 0.00 0.00 0.00 67 1013.5
20260505194600 11 352 6.4 12.9 0.00 0.00 0.00 66 1013.6
20260505194057 11 313 4.8 12.9 0.00 0.00 0.00 66 1013.5
20260505193558 12 352 3.2 12.9 0.00 0.00 0.00 65 1013.5
20260505193057 12 24 6.4 14.5 0.00 0.00 0.00 65 1013.4
20260505192600 12 15 4.8 14.5 0.00 0.00 0.00 64 1013.2
20260505192058 12 322 4.8 14.5 0.00 0.00 0.00 64 1013.2
20260505191605 12 337 8.0 17.7 0.00 0.00 0.00 64 1013.2
20260505191058 12 336 6.4 17.7 0.00 0.00 0.00 64 1013.2
20260505190601 12 13 8.0 17.7 0.00 0.00 0.00 64 1013.2
20260505190114 13 360 4.8 17.7 0.00 0.00 0.00 63 1013.2
20260505185558 13 352 6.4 17.7 0.00 0.00 0.00 62 1013.1
20260505185058 13 352 9.7 17.7 0.00 0.00 0.00 61 1013.1
20260505184559 13 19 8.0 17.7 0.00 0.00 0.00 61 1013.1
20260505184058 13 360 8.0 14.5 0.00 0.00 0.00 61 1013.2
20260505183557 13 311 4.8 12.9 0.00 0.00 0.00 61 1013.0
20260505183100 13 350 6.4 12.9 0.00 0.00 0.00 61 1013.1
20260505182558 13 343 6.4 12.9 0.00 0.00 0.00 60 1013.0
20260505182057 13 337 4.8 14.5 0.00 0.00 0.00 60 1013.1
20260505181642 13 340 3.2 14.5 0.00 0.00 0.00 59 1013.0
20260505181057 13 341 4.8 14.5 0.00 0.00 0.00 59 1013.0
20260505180645 13 340 6.4 12.9 0.00 0.00 0.00 59 1013.0
20260505180106 14 55 3.2 11.3 0.00 0.00 0.00 59 1013.1
20260505175558 14 336 4.8 14.5 0.00 0.00 0.00 59 1013.1
20260505175058 14 360 3.2 16.1 0.00 0.00 0.00 60 1013.0
20260505174558 14 5 6.4 16.1 0.00 0.00 0.00 58 1013.2
20260505174058 14 10 4.8 12.9 0.00 0.00 0.00 59 1013.3
20260505173558 14 5 4.8 16.1 0.00 0.00 0.00 58 1013.2
20260505173100 14 13 4.8 20.9 0.00 0.00 0.00 59 1013.2
20260505172557 14 32 11.3 20.9 0.00 0.00 0.00 59 1013.3
20260505172057 14 360 6.4 17.7 0.00 0.00 0.00 58 1013.3
20260505171604 14 360 6.4 16.1 0.00 0.00 0.00 58 1013.3
20260505171057 14 352 8.0 20.9 0.00 0.00 0.00 58 1013.3
20260505170558 14 41 4.8 20.9 0.00 0.00 0.00 58 1013.4
20260505170100 14 12 9.7 20.9 0.00 0.00 0.00 57 1013.4
20260505165559 14 20 8.0 20.9 0.00 0.00 0.00 57 1013.4
20260505165059 14 350 9.7 20.9 0.00 0.00 0.00 58 1013.4
20260505164600 15 328 8.0 20.9 0.00 0.00 0.00 59 1013.4
20260505164059 15 5 11.3 20.9 0.00 0.00 0.00 59 1013.4
20260505163601 15 334 8.0 16.1 0.00 0.00 0.00 59 1013.4
20260505163058 15 338 8.0 16.1 0.00 0.00 0.00 59 1013.4
20260505162558 15 338 8.0 16.1 0.00 0.00 0.00 57 1013.3
20260505162100 15 52 3.2 20.9 0.00 0.00 0.00 56 1013.3
20260505161559 15 12 9.7 20.9 0.00 0.00 0.00 54 1013.3
20260505161059 15 346 9.7 20.9 0.00 0.00 0.00 54 1013.3
20260505160559 15 29 9.7 17.7 0.00 0.00 0.00 53 1013.3
20260505153059 15 278 11.3 20.9 0.00 0.00 0.00 52 1013.4
20260505152558 16 343 9.7 19.3 0.00 0.00 0.00 56 1013.4
20260505152058 16 360 8.0 19.3 0.00 0.00 0.00 55 1013.5
20260505151605 16 333 8.0 20.9 0.00 0.00 0.00 54 1013.3
20260505151101 16 346 8.0 20.9 0.00 0.00 0.00 53 1013.4
20260505150558 16 24 9.7 19.3 0.00 0.00 0.00 53 1013.4
20260505140558 16 335 8.0 17.7 0.00 0.00 0.00 52 1013.5
20260505140110 16 327 4.8 17.7 0.00 0.00 0.00 54 1013.5
20260505130110 17 352 8.0 16.1 0.00 0.00 0.00 53 1013.4
20260505124624 16 64 4.8 17.7 0.00 0.00 0.00 54 1013.6
20260505124058 16 326 9.7 17.7 0.00 0.00 0.00 52 1013.7
20260505123558 16 54 4.8 19.3 0.00 0.00 0.00 54 1013.6
20260505123117 17 57 9.7 19.3 0.00 0.00 0.00 53 1013.7
20260505122558 17 324 4.8 19.3 0.00 0.00 0.00 56 1013.8
20260505122059 17 315 4.8 20.9 0.00 0.00 0.00 53 1013.7
20260505121604 17 334 9.7 20.9 0.00 0.00 0.00 55 1013.7
20260505121059 17 320 8.0 20.9 0.00 0.00 0.00 53 1013.7
20260505120557 17 27 9.7 20.9 0.00 0.00 0.00 57 1013.7
20260505120124 17 360 8.0 20.9 0.00 0.00 0.00 54 1013.8
20260505115559 17 342 8.0 22.5 0.00 0.00 0.00 56 1013.7
20260505115059 17 11 12.9 22.5 0.00 0.00 0.00 53 1013.8
20260505114559 17 316 9.7 20.9 0.00 0.00 0.00 53 1013.9
20260505114059 16 327 4.8 24.1 0.00 0.00 0.00 55 1013.9
20260505113603 16 79 11.3 24.1 0.00 0.00 0.00 54 1013.9
20260505113104 16 302 11.3 19.3 0.00 0.00 0.00 56 1014.0
20260505112559 16 329 6.4 19.3 0.00 0.00 0.00 58 1014.0
20260505112059 15 5 8.0 19.3 0.00 0.00 0.00 59 1014.0
20260505111602 15 330 8.0 17.7 0.00 0.00 0.00 57 1014.2
20260505111059 15 5 4.8 17.7 0.00 0.00 0.00 57 1014.1
20260505110559 15 337 3.2 17.7 0.00 0.00 0.00 56 1014.3
20260505110112 15 34 9.7 22.5 0.00 0.00 0.00 58 1014.2
20260505102059 15 344 9.7 24.1 0.00 0.00 0.00 61 1014.4
20260505101603 15 5 12.9 24.1 0.00 0.00 0.00 59 1014.4
20260505101059 15 338 9.7 20.9 0.00 0.00 0.00 57 1014.4
20260505100559 15 42 9.7 20.9 0.00 0.00 0.00 59 1014.4
20260505100101 15 340 4.8 14.5 0.00 0.00 0.00 62 1014.2
20260505095558 15 121 4.8 16.1 0.00 0.08 0.00 58 1014.4
20260505095100 15 352 3.2 16.1 0.00 0.08 0.00 60 1014.5
20260505094559 15 5 6.4 20.9 0.00 0.08 0.00 60 1014.5
20260505094059 15 129 6.4 24.1 0.00 0.08 0.00 58 1014.5
20260505093559 15 42 9.7 27.4 0.00 0.08 0.00 60 1014.5
20260505093058 15 352 9.7 27.4 0.00 0.08 0.00 60 1014.5
20260505092600 15 346 12.9 27.4 0.00 0.08 0.00 60 1014.6
20260505092100 15 322 4.8 14.5 0.00 0.08 0.00 62 1014.5
20260505091600 15 65 6.4 16.1 0.00 0.08 0.00 62 1014.6
20260505091100 15 0 1.6 24.1 0.00 0.08 0.00 65 1014.5
20260505090559 14 9 1.6 24.1 0.00 0.08 0.00 65 1014.6
20260505090059 14 15 11.3 24.1 0.00 0.08 0.00 62 1014.7
20260505085559 14 306 9.7 19.3 0.00 0.08 0.00 65 1014.5
20260505085059 14 22 6.4 17.7 0.00 0.08 0.00 63 1014.6
20260505084605 14 325 3.2 17.7 0.00 0.08 0.00 64 1014.5
20260505084057 14 18 1.6 16.1 0.00 0.08 0.00 66 1014.6
20260505083557 13 52 6.4 16.1 0.00 0.08 0.00 68 1014.6
20260505083115 13 318 4.8 16.1 0.00 0.08 0.00 68 1014.6
20260505082605 13 340 4.8 16.1 0.00 0.08 0.00 68 1014.5
20260505082058 12 5 3.2 9.7 0.00 0.08 0.00 70 1014.5
20260505081608 12 341 3.2 8.0 0.00 0.08 0.00 71 1014.6
20260505081058 12 0 1.6 4.8 0.00 0.08 0.00 72 1014.6
20260505080557 11 88 0.0 6.4 0.00 0.08 0.00 75 1014.6
20260505080114 11 190 0.0 6.4 0.00 0.08 0.00 74 1014.6
20260505075557 11 16 1.6 16.1 0.00 0.08 0.00 74 1014.7
20260505075100 12 292 6.4 17.7 0.00 0.08 0.00 74 1014.6
20260505074558 12 302 4.8 17.7 0.00 0.08 0.00 73 1014.7
20260505074058 12 328 8.0 16.1 0.00 0.08 0.00 75 1014.6
20260505073559 12 26 6.4 16.1 0.00 0.08 0.00 75 1014.7
20260505073104 12 322 6.4 16.1 0.00 0.08 0.00 75 1014.7
20260505072557 11 352 4.8 12.9 0.00 0.08 0.00 78 1014.7
20260505072058 11 352 4.8 12.9 0.00 0.08 0.00 78 1014.6
20260505071606 11 323 3.2 9.7 0.00 0.08 0.00 80 1014.8
20260505071058 10 301 3.2 9.7 0.00 0.08 0.00 79 1014.7
20260505070558 10 19 4.8 9.7 0.00 0.08 0.00 80 1014.8
20260505070107 10 350 1.6 6.4 0.00 0.08 0.00 80 1014.9
20260505065558 10 316 3.2 6.4 0.00 0.08 0.00 79 1014.9
20260505065058 10 352 1.6 6.4 0.00 0.08 0.00 80 1014.9
20260505064702 10 286 0.0 6.4 0.00 0.08 0.00 81 1014.8
20260505064058 10 340 1.6 6.4 0.00 0.08 0.00 81 1014.6
20260505063558 10 26 1.6 12.9 0.00 0.08 0.00 81 1014.6
20260505063101 10 103 3.2 19.3 0.00 0.08 0.00 81 1014.5
20260505062558 10 61 0.0 19.3 0.00 0.08 0.00 81 1014.6
20260505062058 10 90 4.8 19.3 0.00 0.08 0.00 80 1014.5
20260505061600 10 277 1.6 12.9 0.00 0.08 0.00 84 1014.5
20260505061058 10 90 4.8 12.9 0.00 0.08 0.00 84 1014.3
20260505060606 10 127 0.0 4.8 0.00 0.08 0.00 85 1014.3
20260505060058 10 0 0.0 6.4 0.00 0.08 0.00 85 1014.4
20260505055558 10 0 1.6 9.7 0.00 0.08 0.00 85 1014.5
20260505055101 10 82 3.2 9.7 0.00 0.08 0.00 85 1014.5
20260505054558 10 98 3.2 11.3 0.00 0.08 0.00 85 1014.5
20260505054058 10 30 1.6 11.3 0.00 0.08 0.00 87 1014.4
20260505053558 10 71 0.0 11.3 0.00 0.08 0.00 87 1014.5
20260505053100 10 143 1.6 11.3 0.00 0.08 0.00 88 1014.3
20260505052559 10 330 1.6 8.0 0.00 0.08 0.00 88 1014.4
20260505052059 10 352 3.2 8.0 0.00 0.08 0.00 88 1014.4
20260505051558 10 0 0.0 4.8 0.00 0.08 0.00 88 1014.5
20260505051059 10 217 0.0 8.0 0.00 0.08 0.00 87 1014.6
20260505050559 10 166 0.0 11.3 0.00 0.08 0.00 87 1014.5
20260505050110 10 66 3.2 11.3 0.00 0.08 0.00 87 1014.5
20260505041607 9 328 1.6 6.4 0.00 0.08 0.00 89 1014.5
20260505041057 9 0 1.6 6.4 0.00 0.08 0.00 88 1014.5
20260505040557 9 360 1.6 6.4 0.00 0.08 0.00 88 1014.5
20260505040106 9 13 1.6 8.0 0.00 0.08 0.00 88 1014.4
20260505035601 9 352 3.2 8.0 0.00 0.08 0.00 88 1014.4
20260505035057 9 352 0.0 11.3 0.00 0.08 0.00 88 1014.3
20260505034613 9 352 3.2 11.3 0.00 0.08 0.00 88 1014.2
20260505034058 9 59 4.8 11.3 0.00 0.08 0.00 88 1014.3
20260505033557 9 28 1.6 12.9 0.00 0.08 0.00 88 1014.4
20260505033108 9 69 4.8 12.9 0.00 0.08 0.00 88 1014.4
20260505032557 9 48 4.8 11.3 0.00 0.08 0.00 89 1014.3
20260505032056 8 47 1.6 6.4 0.00 0.08 0.00 90 1014.2
20260505031607 8 352 1.6 8.0 0.00 0.08 0.00 91 1014.4
20260505031056 8 0 3.2 8.0 0.00 0.08 0.00 91 1014.3
20260505030600 8 18 1.6 3.2 0.00 0.08 0.00 90 1014.4
20260505030119 8 40 0.0 4.8 0.00 0.08 0.00 90 1014.3
20260505025558 8 40 1.6 4.8 0.00 0.08 0.00 90 1014.3
20260505025058 8 0 1.6 4.8 0.00 0.08 0.00 90 1014.4
20260505024612 8 53 1.6 4.8 0.00 0.08 0.00 90 1014.5
20260505024057 9 10 1.6 6.4 0.00 0.08 0.00 90 1014.5
20260505023558 9 51 1.6 6.4 0.00 0.08 0.00 91 1014.5
20260505023057 9 26 3.2 4.8 0.00 0.08 0.00 90 1014.6
20260505022601 9 28 1.6 4.8 0.00 0.08 0.00 91 1014.5
20260505022058 9 0 1.6 6.4 0.00 0.08 0.00 91 1014.7
20260505021557 9 11 3.2 6.4 0.00 0.08 0.00 91 1014.6
20260505021057 9 37 3.2 6.4 0.00 0.08 0.00 90 1014.7
20260505020558 9 54 1.6 4.8 0.00 0.08 0.00 90 1014.8
20260505020107 9 60 3.2 4.8 0.00 0.08 0.00 90 1014.8
20260505015557 9 52 3.2 4.8 0.00 0.08 0.00 90 1014.7
20260505015100 9 53 3.2 6.4 0.00 0.08 0.00 90 1014.7
20260505014556 9 59 1.6 6.4 0.00 0.08 0.00 90 1014.7
20260505014056 10 63 3.2 6.4 0.00 0.08 0.00 90 1014.8
20260505013557 10 55 3.2 6.4 0.00 0.08 0.00 90 1014.9
20260505013058 10 46 1.6 6.4 0.00 0.08 0.00 89 1014.7
20260505012600 10 42 3.2 4.8 0.00 0.08 0.00 89 1014.7